Regional Weather Roundup
Issued by NWS

Home | Current Version | Previous Version | Text Only | Print | Product List | Glossary On
Versions: 1 2 3 4 5 6 7 8 9 10 11 12 13 14 15 16 17 18 19 20 21 22 23 24 25 26 27 28 29 30 31 32 33 34 35 36 37 38 39 40 41 42 43 44 45 46 47 48 49 50
000
ASUS43 KLOT 260907
RWRIL

ILLINOIS REGIONAL WEATHER ROUNDUP
NATIONAL WEATHER SERVICE CHICAGO/ROMEOVILLE IL
400 AM CDT WED APR 26 2017

NOTE: "FAIR" INDICATES FEW OR NO CLOUDS BELOW 12,000 FEET WITH NO
SIGNIFICANT WEATHER AND/OR OBSTRUCTIONS TO VISIBILITY.

* THESE STATIONS ARE NOT UNDER NWS QUALITY CONTROL. THEY ALSO MAY NOT
  REPORT WEATHER SUCH AS PRECIPITATION OR FOG.

ILZ001-002-007-009-015-016-024-261000-
NORTHWEST ILLINOIS

CITY           SKY/WX    TMP DP  RH WIND       PRES   REMARKS
MOLINE         CLOUDY    65  53  65 SW5       29.40S
STERLING*      MOCLDY    66  52  60 VRB7      29.43S
SAVANNA*       MOCLDY    62  54  76 CALM      29.41F
$$

ILZ003-004-008-010-011-017-018-261000-
NORTH CENTRAL ILLINOIS

CITY           SKY/WX    TMP DP  RH WIND       PRES   REMARKS
ROCKFORD       CLOUDY    66  53  63 S14       29.45F
FREEPORT*      CLOUDY    63  52  67 S10       29.43F
ROCHELLE*      MOCLDY    62  54  73 S14       29.45F
DE KALB*       CLOUDY    62  55  75 SE12      29.47F
PERU*          MOCLDY    62  52  70 SE9       29.46F
$$

ILZ005-006-012>014-019>023-261000-
NORTHEAST ILLINOIS

CITY           SKY/WX    TMP DP  RH WIND       PRES   REMARKS
CHICAGO-OHARE  CLOUDY    66  55  67 S10       29.48F
CHICAGO-MIDWAY CLOUDY    67  55  65 S12       29.49F
AURORA         CLOUDY    65  56  72 SE12      29.47F
LANSING*       MOCLDY    64  57  77 S10       29.52F
JOLIET*        CLOUDY    66  57  72 SE8       29.49F
WAUKEGAN       CLOUDY    57  52  83 SE7       29.48F
DUPAGE AIRPORT CLOUDY    65  57  75 S10       29.47F
KANKAKEE*      MOCLDY    64  55  70 SE12      29.51F
WHEELING       MOCLDY    66  56  70 S12       29.49F
MORRIS*        CLOUDY    64  55  73 S10       29.46F
ROMEOVILLE*    CLOUDY    63  58  82 S12       29.49F
NORTHERLY ISL    N/A     66  54  65 S13         N/A
$$

LMZ740>746-261000-
SOUTHERN LAKE MICHIGAN

STATION/POSITION SKY/WX   TEMP    WIND        PRES    VSBY  WAVE
                          AIR SEA DIR/SP/G                  HT/PER
                          (F)     (DEG/KT/KT) (MB)    (MI)  (FT/S)
SOUTHERN BUOY              49 41  110/ 14/ 14 1000.1          1/ 2
HARRISON CRIB              60     160/ 13/ 14   N/A
BURNHAM HARBOR             66     170/  8/ 16   N/A
CALUMET HARBOR             67     160/ 10/ 16  998.8F
BURNS HARBOR               67     160/ 10/ 17 1000.7S
MICHIGAN CITY              65     140/ 11/ 13   N/A
ST. JOSEPH                 60 50  160/ 14/ 17 1000.8          1/ 2
$$

ILZ025>027-034>036-040-047-049-050-058-095>099-261000-
WEST-CENTRAL ILLINOIS

CITY           SKY/WX    TMP DP  RH WIND       PRES   REMARKS
QUINCY         LGT RAIN  66  55  67 S5        29.42F
GALESBURG*     CLOUDY    67  52  59 S9        29.41F
MACOMB*        CLOUDY    66  51  59 S9        29.45S
JACKSONVILLE*  CLOUDY    65  51  62 S7        29.44F
PITTSFIELD*    CLOUDY    67  53  62 SE6       29.44F
$$

ILZ028>032-037-038-041>044-048-051>054-059>061-261000-
CENTRAL ILLINOIS

CITY           SKY/WX    TMP DP  RH WIND       PRES   REMARKS
PONTIAC        CLOUDY    66  57  73 S16G23    29.49S
BLOOMINGTON    CLOUDY    62  55  77 S12       29.50S
DECATUR        PTCLDY    65  56  72 S15       29.49F
PEORIA         PTCLDY    65  52  62 S9        29.45S
LACON*         CLOUDY    64  52  65 S9        29.44S
LINCOLN*       CLOUDY    65  55  70 S9        29.47S
SPRINGFIELD    CLOUDY    66  52  60 S14       29.46F
TAYLORVILLE    CLOUDY    64  54  68 S12       29.48F
$$

ILZ033-039-045-046-055>057-062-063-261000-
EAST-CENTRAL ILLINOIS

CITY           SKY/WX    TMP DP  RH WIND       PRES   REMARKS
CHAMPAIGN      PTCLDY    65  54  67 SE15      29.52S
RANTOUL*       CLOUDY    65  57  75 SE13      29.52S
MATTOON        CLOUDY    64  57  78 S10       29.53S
PARIS*         MOCLDY    62  56  83 SE12      29.57S
$$

ILZ079-100>102-261000-
SOUTHWEST ILLINOIS

CITY           SKY/WX    TMP DP  RH WIND       PRES   REMARKS
ALTON          CLOUDY    65  53  64 S8        29.47F
BELLEVILLE     MOCLDY    66  55  66 E3        29.48S
CAHOKIA*       CLOUDY    68  53  58 S6        29.48R
SPARTA*        CLOUDY    66  54  64 S10       29.54R
$$

ILZ064>066-069>071-074>076-080>082-084>086-088>090-092>094-261000-
SOUTH-CENTRAL ILLINOIS

CITY           SKY/WX    TMP DP  RH WIND       PRES   REMARKS
CARBONDALE     CLOUDY    68  55  63 S14       29.54F
CAIRO*         MOCLDY    66  56  70 S9        29.58F
EFFINGHAM*     CLOUDY    64  57  77 SE9       29.55S
MARION         PTCLDY    66  55  68 S10       29.56F
MT. VERNON     MOCLDY    65  55  70 S9        29.54F
CENTRALIA*     CLOUDY    66  56  70 S13       29.51S
SALEM*         MOCLDY    68  54  59 S12G18    29.52S
METROPOLIS*    PTCLDY    66  55  68 S6        29.61R
$$

ILZ067-068-072-073-078-083-087-091-261000-
SOUTHEAST ILLINOIS

CITY           SKY/WX    TMP DP  RH WIND       PRES   REMARKS
LAWRENCEVILLE  PTCLDY    64  57  78 S13       29.59S
FLORA*         PTCLDY    64  57  79 S12       29.55F
FAIRFIELD*     PTCLDY    64  56  77 SE5       29.55F
HARRISBURG*    CLOUDY    62  57  83 SE6       29.58S
ROBINSON*      PTCLDY    62  56  82 S10       29.58S
CARMI*         PTCLDY    61  57  88 SE7       29.59R
$$

ABBREVIATIONS USED IN REMARKS
   TC - TEMPERATURE IN CELSIUS
  WCI - WIND CHILL INDEX
   HX - HEAT INDEX
  VSB - VISIBILITY
$$





USA.gov is the U.S. government's official web portal to all federal, state and local government web resources and services.